Location: Austin
(30.3000°N, 97.7500°W)
Time: 23:08:32
(UTC-05:00)

Helios 1A Rocket - Pass Details

Date: 06 May 2026
Orbit: 406 x 416 km, 98.3° (Epoch: 13 May)

Event Time Altitude Azimuth Distance (km) Brightness Sun altitude
Rises 20:43:08 0° 33° (NNE) 2,335 5.9 -7.0°
Reaches altitude 10° 20:45:38 10° 55° (NE) 1,468 4.7 -7.5°
Maximum altitude 20:47:44 17° 97° (E) 1,128 3.8 -7.9°
Drops below altitude 10° 20:49:49 10° 140° (SE) 1,459 4.4 -8.3°
Enters shadow 20:50:13 - 145° (SE) 1,577 4.6 -8.4°
